Location: Poughquag
(41.6090°N, 73.6820°W)
Time: 15:32:51
(UTC-05:00)

S-56A Canister/Altair - Pass Details

Date: 04 December 2023
Orbit: 640 x 2488 km, 38.9° (Epoch: 26 February)

Event Time Altitude Azimuth Distance (km) Brightness Sun altitude
Rises 17:02:51 0° 274° (W) 3,157 11.9 -7.2°
Reaches altitude 10° 17:05:17 10° 262° (W) 2,375 11.6 -7.6°
Maximum altitude 17:09:56 28° 204° (SSW) 1,742 9.9 -8.4°
Drops below altitude 10° 17:16:07 10° 149° (SSE) 3,220 10.6 -9.5°
Sets 17:20:02 0° 139° (SE) 4,528 11.3 -10.2°
